星链-30269 (STARLINK-30269 )

导读

STARLINK-30269是美国于2023年8月8日发射的星链卫星,归属于SpaceX公司的星链互联网星座项目。星链旨在通过大规模低轨卫星组网,为全球提供高速宽带互联网服务,该卫星的发射是星链星座部署进程中的一部分,持续推进星座的全球覆盖能力建设。

Basic Information
目录编号:
57528
目录名称:
STARLINK-30269
国际标识:
2023-115H
轨道中心:
EARTH
卫星名称:
星链-30269
卫星全名:
星链-30269 (STARLINK-30269 )
卫星状态:
在轨 (已飞行1130 天)
发射日期:
2023-08-08 UTC
国别 :
美国 (US)
星等 :
--
This satellite is enrolled in the Space Conjunction Data Service (SCDS) and the current flight risk assessment level is: No High Risk
Orbit Information
数据来源 国际轨道数据
星历时间: 2026-09-09T17:47:47+0800
2天前
查看轨道信息
半长轴: 6861.207km
偏心率: 0.0001162
轨道倾角: 43.005°
近地点辐角 264.350°
升交点赤经 44.503°
平近点角 95.722°
近地点: 482.272km
远地点: 483.868km
周期: 94.267分钟
每日圈数: 15.275732
Detailed Information
固有亮度:
5
最大亮度:
0.3
卫星平台:
Starlink v2.0 mini
覆盖范围:
全球
运营商:
太空探索技术公司
运营商所在国:
美国
制造商(研发单位):
太空探索技术公司
制造商所在国:
美国
使用方式:
暂无
Satellite Introduction
星链(Starlink)计划是由太空探索技术公司(SpaceX)提出的一个巨型低轨卫星互联网星座项目,计划在2019年至2024年间在太空搭建由约1.2万颗卫星组成的“星链”网络,其中1584颗将部署在地球上空550千米处的近地轨道,并从2020年开始工作。该卫星仍在工作。
2D Orbit Map
3D Orbit Map
Orbit Altitude Analysis Chart
Orbit Inclination Analysis Chart
Orbit Comprehensive Analysis Chart
View Comprehensive Chart
Conjunction Data List
Event ID Objects TCA Miss Dist (km) Collision Risk Probability Collision Risk Index (CRI) Action
CDM_260913-221105-654605-752821
2026-09-13T
22:11:46+0000
1.279 km
极远距离
8.593987E-6 低风险 0.54
CDM_260913-234505-654605-752821
2026-09-13T
23:45:56+0000
1.496 km
极远距离
5.093487E-6 低风险 0.49
CDM_260913-165305-695705-752821
2026-09-13T
16:53:38+0000
2.331 km
极远距离
1.603866E-6 低风险 0.39
Miss Distance Evolution Trend with All Objects
Collision Probability Evolution Trend with All Objects